#timestamp,LO_Frequency,Hit,StdDev 
1515034815.8,286047003.1,N
1515034835.7,286047003.4,N
1515034855.5,286047003.0,N
1515034875.3,286047003.9,N
1515034895.2,286047003.2,N
1515034915.9,286047005.9,N
1515034935.7,286047007.6,N
1515034955.6,286047004.9,N
1515034975.4,286047006.3,N
1515034995.2,286047005.9,N
1515035015.0,286047005.4,N
1515035016.0,286047005.4,N
1515035035.8,286047007.2,N
1515035055.6,286047007.2,N
1515035075.4,286047006.3,N
1515035095.3,286047007.7,N
1515035115.1,286047010.7,Y
1515035135.8,286047007.3,P
1515035155.7,286047003.2,N
1515035175.5,286047003.6,N
1515035195.3,286047006.6,Y
1515035215.2,286047008.6,P
1515035235.0,286047012.1,P
1515035235.9,286047012.1,P
1515035255.8,286047010.5,Y
1515035275.6,286047002.5,P
1515035295.4,286047000.9,N
1515035315.2,286047001.0,N
1515035335.1,286047002.6,N
1515035336.0,286047002.6,N
1515035355.8,286047000.9,N
1515035375.6,286047000.1,N
1515035395.5,286047001.1,N
1515035415.3,286047002.4,N
1515035435.1,286047003.5,N
1515035455.9,286047001.6,N
1515035475.7,286047001.5,N
1515035495.5,286046999.8,N
1515035515.4,286047002.4,N
1515035535.2,286047002.3,N
1515035555.0,286047001.7,N
1515035555.9,286047001.7,N
1515035575.8,286047002.8,N
1515035595.6,286047000.8,N
1515035615.4,286046999.5,N
1515035635.2,286046999.6,N
1515035655.1,286047001.2,N
1515035656.0,286047001.2,N
1515035675.8,286046999.6,N
1515035695.6,286046998.6,N
1515035715.5,286047002.3,N
1515035735.3,286047001.8,N
1515035755.1,286047002.5,N
1515035775.9,286047001.5,N
1515035795.7,286047007.5,Y
1515035815.5,286047001.1,P
1515035835.4,286046995.8,P
1515035855.2,286046994.6,N
1515035875.0,286046992.1,N
1515035875.9,286046992.1,N
1515035895.8,286046996.4,N
1515035915.6,286046996.8,N
1515035935.4,286046998.6,N
1515035955.3,286047000.4,N
1515035975.1,286046998.1,N
1515035976.0,286046998.1,N
1515035995.8,286046997.5,N
1515036015.6,286046999.9,N
1515036035.5,286046998.7,N
1515036055.3,286047001.1,N
1515036075.1,286046999.3,N
1515036095.9,286046996.2,N
1515036115.7,286046997.9,N
1515036135.5,286046993.4,N
1515036155.4,286047000.7,N
1515036175.2,286047005.7,N
1515036195.0,286047004.6,N
1515036195.9,286047004.6,N
1515036215.8,286047004.7,N
1515036235.6,286047002.0,N
1515036255.4,286047007.5,N
1515036275.2,286047001.4,N
1515036295.1,286047002.1,N
1515036296.0,286047002.1,N
1515036315.8,286046999.9,N
1515036335.6,286047001.9,N
1515036355.5,286047003.0,N
1515036375.3,286047000.4,N
1515036395.1,286046998.8,N
1515036415.9,286046999.0,N
1515036435.7,286046996.8,N
1515036455.5,286046997.2,N
1515036475.4,286046995.9,N
1515036495.2,286046996.6,N
1515036515.0,286046997.0,N
1515036515.9,286046997.0,N
1515036535.8,286046997.5,N
1515036555.6,286046995.1,N
1515036575.4,286046993.5,N
1515036595.3,286046995.1,N
1515036615.1,286046992.9,N
1515036616.0,286046992.9,N
1515036635.8,286046994.6,N
1515036655.7,286046993.8,N
1515036675.5,286046988.5,N
1515036695.3,286046988.7,N
1515036715.1,286046989.2,N
1515036735.9,286046990.6,N
1515036755.7,286046989.7,N
1515036775.5,286046991.6,N
1515036795.4,286046993.2,N
1515036815.2,286046990.3,N
1515036835.0,286046989.2,N
1515036835.9,286046989.2,N
1515036855.8,286046987.9,N
1515036875.6,286046988.3,N
1515036895.4,286046989.7,N
1515036915.3,286046989.0,N
1515036935.1,286046984.3,Y
1515036955.8,286046994.6,P
1515036975.7,286046994.1,P
1515036995.5,286046997.5,P
1515037015.3,286046996.4,N
1515037035.2,286046995.9,N
1515037055.9,286046994.8,Y
1515037075.7,286046995.9,P
1515037095.6,286046995.7,P
1515037115.4,286046996.1,P
1515037135.2,286046996.4,Y
1515037155.1,286047000.0,P
1515037156.0,286047000.0,N
1515037175.8,286047000.0,N
1515037195.6,286047005.0,N
1515037215.5,286047005.6,N
1515037235.3,286047001.3,N
1515037255.1,286046999.8,N
1515037275.8,286047002.7,N
1515037295.7,286047002.4,N
1515037315.5,286047004.1,N
1515037335.3,286047001.3,N
1515037355.2,286046999.9,N
1515037375.9,286047000.7,N
1515037395.7,286047000.8,N
1515037415.6,286046996.7,N
1515037435.4,286047000.8,N
1515037455.2,286046999.7,N
1515037475.1,286047000.9,N
1515037476.0,286047000.9,N
1515037495.8,286047001.3,N
1515037515.6,286047000.1,N
1515037535.4,286046999.1,N
1515037555.3,286046999.1,N
1515037575.1,286047000.9,N
1515037595.8,286047004.1,N
1515037615.7,286047004.2,N
1515037635.5,286047005.9,N
1515037655.3,286047004.8,N
1515037675.2,286046999.7,N
1515037695.9,286046998.7,N
1515037715.7,286046996.5,N
1515037735.6,286046997.1,N
1515037755.4,286047002.1,N
1515037775.2,286046999.7,N
1515037795.0,286046998.3,N
1515037796.0,286046998.3,N
1515037815.8,286046999.1,N
1515037835.6,286046995.6,N
1515037855.4,286046995.7,N
1515037875.3,286046994.1,N
1515037895.1,286046997.6,N
1515037915.8,286046996.3,N
1515037935.7,286046996.7,N
1515037955.5,286046996.5,N
1515037975.3,286046998.0,N
1515037995.2,286046994.1,N
1515038015.9,286046996.0,N
1515038035.7,286046995.5,N
1515038055.6,286046995.7,N
1515038075.4,286046993.3,N
1515038095.2,286046994.4,N
1515038115.0,286046992.4,N
1515038116.0,286046992.4,N
1515038135.8,286046990.5,N
1515038155.6,286046990.8,N
1515038175.4,286046991.9,N
1515038195.3,286046995.3,N
1515038215.1,286046996.6,N
1515038235.8,286046996.7,N
1515038255.7,286047001.2,N
1515038275.5,286046996.5,N
1515038295.3,286046998.7,N
1515038315.2,286046993.3,N
1515038335.9,286046997.4,N
1515038355.7,286046999.9,N
1515038375.6,286047001.1,N
1515038395.4,286046998.7,N
